Главная страница
METAR-TAF:

METAR-TAF

Аэропорты :

Aeroflex-Andover Airport

Andover, Нью-Джерси, США

широта: 41-00-32N, долгота: 074-44-12W, высота над уровнем моря: 177 м

Текущие метеонаблюдения

Эта сводка был подготовлена 8 часа и 48 минут назад, в 04:54 UTC
Штиль
Температура 18°C
Влажность 100%
Давление 1021 hPa

METAR: K12N 210454Z AUTO 00000KT 18/18 A3016 RMK AO1 SLP207 T01780178 402390167

Время: 09:42 (13:42 UTC)


TAF: отсутствует

Метеонаблюдения и прогнозы для более 4000 аэропортов (сводки METAR и TAF).

Имеющиеся станции представлены на карте желтыми и красными точками.

Чтобы увидеть название станции, наведите на нее мышь.

Затем щелкните, чтобы увидеть метеонаблюдения и метеопрогнозы.

Управление картой: чтобы увеличить масштаб, щелкните зеленые кнопки с черным крестиком; чтобы уменьшить масштаб, щелкните зеленую кнопку с тире; для просмотра соседних карт щелкайте зеленые стрелки.


METAR-TAF: